DQA185 VRMM-OPKC

Flight info

Callsign DQA185
Flight time N/A
Altitude 40000
Route KAGUM2B KAGUM R329 POMAN P570 OTABI/N0477F390 A474 BBB/N0472F260 B342 SAPNA M638 MINAR
Aircraft A333/H-SDE3GHIJ2J3J5M1RVWXY/LB2D1

Departure

Time N/A
Airport Velana International Airport (VRMM)

Arrival

Time 2026-05-04 13:59
Airport Jinnah International Airport (OPKC)
Time Latitude Longitude Altitude Speed Heading
2026-05-04 13:00 20.97644 70.67018 25760 ft 443 kts 312°
2026-05-04 13:00 20.99012 70.65391 25761 ft 443 kts 312°
2026-05-04 13:00 21.01073 70.62939 25760 ft 443 kts 312°
2026-05-04 13:01 21.03815 70.59676 25757 ft 443 kts 312°
2026-05-04 13:01 21.05876 70.57221 25759 ft 444 kts 312°
2026-05-04 13:01 21.07270 70.55560 25758 ft 444 kts 312°
2026-05-04 13:01 21.09313 70.53126 25753 ft 444 kts 312°
2026-05-04 13:02 21.11372 70.50670 25757 ft 443 kts 312°
2026-05-04 13:02 21.13435 70.48209 25761 ft 443 kts 312°
2026-05-04 13:02 21.15491 70.45756 25758 ft 443 kts 312°
2026-05-04 13:02 21.17554 70.43293 25758 ft 443 kts 312°
2026-05-04 13:03 21.19617 70.40829 25753 ft 443 kts 312°
2026-05-04 13:03 21.21682 70.38361 25755 ft 443 kts 312°
2026-05-04 13:03 21.23715 70.35931 25755 ft 443 kts 312°
2026-05-04 13:03 21.25773 70.33469 25752 ft 443 kts 312°
2026-05-04 13:04 21.27827 70.31011 25756 ft 443 kts 312°
2026-05-04 13:04 21.29883 70.28550 25753 ft 442 kts 312°
2026-05-04 13:04 21.31801 70.25970 25751 ft 442 kts 306°
2026-05-04 13:04 21.33504 70.23216 25752 ft 442 kts 304°
2026-05-04 13:05 21.35140 70.20424 25752 ft 442 kts 303°
2026-05-04 13:05 21.36739 70.17603 25747 ft 442 kts 302°
2026-05-04 13:05 21.38319 70.14771 25750 ft 442 kts 302°
2026-05-04 13:05 21.39895 70.11931 25750 ft 443 kts 302°
2026-05-04 13:06 21.41450 70.09128 25750 ft 443 kts 302°
2026-05-04 13:06 21.43050 70.06252 25749 ft 443 kts 302°
2026-05-04 13:06 21.44613 70.03449 25749 ft 443 kts 302°
2026-05-04 13:06 21.46196 70.00615 25749 ft 442 kts 302°
2026-05-04 13:07 21.47779 69.97783 25744 ft 442 kts 302°
2026-05-04 13:07 21.49369 69.94940 25746 ft 442 kts 302°
2026-05-04 13:07 21.50951 69.92109 25746 ft 442 kts 302°
2026-05-04 13:07 21.52536 69.89272 25762 ft 442 kts 302°
2026-05-04 13:08 21.54119 69.86435 25752 ft 441 kts 302°
2026-05-04 13:08 21.55698 69.83606 25746 ft 441 kts 302°
2026-05-04 13:08 21.57275 69.80777 25747 ft 441 kts 302°
2026-05-04 13:08 21.58832 69.77983 25743 ft 441 kts 302°
2026-05-04 13:09 21.60407 69.75155 25744 ft 441 kts 302°
2026-05-04 13:09 21.61982 69.72326 25744 ft 441 kts 302°
2026-05-04 13:09 21.63556 69.69497 25743 ft 441 kts 302°
2026-05-04 13:09 21.65284 69.66783 25744 ft 440 kts 310°
2026-05-04 13:10 21.67345 69.64361 25744 ft 439 kts 315°
2026-05-04 13:10 21.69530 69.62066 25743 ft 439 kts 317°
2026-05-04 13:10 21.71768 69.59836 25741 ft 439 kts 318°
2026-05-04 13:10 21.74041 69.57633 25741 ft 439 kts 318°
2026-05-04 13:11 21.76322 69.55442 25740 ft 439 kts 318°
2026-05-04 13:11 21.78598 69.53257 25741 ft 439 kts 318°
2026-05-04 13:11 21.80877 69.51060 25738 ft 439 kts 318°
2026-05-04 13:11 21.83117 69.48890 25737 ft 438 kts 318°
2026-05-04 13:12 21.85380 69.46691 25738 ft 438 kts 318°
2026-05-04 13:12 21.87637 69.44491 25740 ft 438 kts 318°
2026-05-04 13:12 21.89899 69.42283 25738 ft 438 kts 318°
2026-05-04 13:12 21.92155 69.40079 25741 ft 438 kts 318°
2026-05-04 13:13 21.94416 69.37869 25738 ft 438 kts 318°
2026-05-04 13:13 21.96671 69.35664 25738 ft 438 kts 318°
2026-05-04 13:13 21.98929 69.33456 25735 ft 438 kts 318°
2026-05-04 13:13 22.01194 69.31240 25735 ft 438 kts 318°
2026-05-04 13:14 22.03452 69.29030 25734 ft 438 kts 318°
2026-05-04 13:14 22.05706 69.26823 25734 ft 438 kts 318°
2026-05-04 13:14 22.07943 69.24632 25735 ft 438 kts 318°
2026-05-04 13:14 22.10195 69.22425 25732 ft 437 kts 318°
2026-05-04 13:15 22.12451 69.20213 25727 ft 437 kts 318°
2026-05-04 13:15 22.14704 69.18004 25725 ft 437 kts 318°
2026-05-04 13:15 22.16962 69.15788 25729 ft 438 kts 318°
2026-05-04 13:15 22.19212 69.13579 25725 ft 438 kts 318°
2026-05-04 13:16 22.21465 69.11366 25725 ft 438 kts 318°
2026-05-04 13:16 22.23716 69.09154 25719 ft 438 kts 318°
2026-05-04 13:16 22.25971 69.06937 25719 ft 438 kts 318°
2026-05-04 13:16 22.28192 69.04753 25716 ft 438 kts 318°
2026-05-04 13:17 22.30448 69.02533 25718 ft 438 kts 318°
2026-05-04 13:17 22.32698 69.00318 25717 ft 438 kts 318°
2026-05-04 13:17 22.34950 68.98100 25719 ft 437 kts 318°
2026-05-04 13:17 22.37199 68.95885 25716 ft 437 kts 318°
2026-05-04 13:18 22.39452 68.93663 25717 ft 437 kts 318°
2026-05-04 13:18 22.41698 68.91448 25718 ft 437 kts 318°
2026-05-04 13:18 22.43915 68.89260 25713 ft 437 kts 318°
2026-05-04 13:18 22.46187 68.87018 25714 ft 437 kts 318°
2026-05-04 13:19 22.48405 68.84828 25710 ft 437 kts 318°
2026-05-04 13:19 22.50649 68.82611 25711 ft 437 kts 318°
2026-05-04 13:19 22.52900 68.80386 25712 ft 438 kts 318°
2026-05-04 13:19 22.55149 68.78161 25711 ft 438 kts 318°
2026-05-04 13:20 22.57397 68.75937 25711 ft 438 kts 318°
2026-05-04 13:20 22.59642 68.73715 25710 ft 438 kts 318°
2026-05-04 13:20 22.61897 68.71482 25715 ft 437 kts 318°
2026-05-04 13:20 22.64136 68.69263 25713 ft 437 kts 318°
2026-05-04 13:21 22.66379 68.67040 25701 ft 437 kts 318°
2026-05-04 13:21 22.68619 68.64819 25706 ft 437 kts 318°
2026-05-04 13:21 22.70860 68.62596 25705 ft 437 kts 318°
2026-05-04 13:21 22.73072 68.60400 25703 ft 437 kts 318°
2026-05-04 13:22 22.75312 68.58175 25707 ft 437 kts 318°
2026-05-04 13:22 22.77550 68.55951 25703 ft 437 kts 318°
2026-05-04 13:22 22.79793 68.53722 25706 ft 437 kts 318°
2026-05-04 13:22 22.82034 68.51493 25698 ft 437 kts 318°
2026-05-04 13:23 22.84279 68.49260 25705 ft 437 kts 318°
2026-05-04 13:23 22.86522 68.47028 25707 ft 438 kts 318°
2026-05-04 13:23 22.88768 68.44791 25702 ft 437 kts 318°
2026-05-04 13:23 22.91005 68.42563 25704 ft 436 kts 318°
2026-05-04 13:24 22.93240 68.40334 25703 ft 436 kts 318°
2026-05-04 13:24 22.95475 68.38106 25694 ft 436 kts 318°
2026-05-04 13:24 22.97682 68.35904 25697 ft 436 kts 318°
2026-05-04 13:25 23.02147 68.31445 25701 ft 436 kts 318°
2026-05-04 13:25 23.04383 68.29212 25702 ft 436 kts 317°
2026-05-04 13:25 23.06616 68.26980 25701 ft 436 kts 317°
2026-05-04 13:25 23.08854 68.24741 25691 ft 436 kts 317°
2026-05-04 13:26 23.11090 68.22504 25693 ft 436 kts 317°
2026-05-04 13:26 23.13322 68.20270 25689 ft 436 kts 317°
2026-05-04 13:26 23.15529 68.18060 25700 ft 435 kts 317°
2026-05-04 13:26 23.17758 68.15826 25699 ft 435 kts 317°
2026-05-04 13:27 23.19983 68.13596 25679 ft 434 kts 317°
2026-05-04 13:27 23.22206 68.11366 25680 ft 434 kts 317°
2026-05-04 13:27 23.24431 68.09134 25692 ft 435 kts 317°
2026-05-04 13:27 23.26652 68.06905 25691 ft 435 kts 317°
2026-05-04 13:28 23.28853 68.04694 25681 ft 435 kts 317°
2026-05-04 13:28 23.31076 68.02460 25691 ft 435 kts 317°
2026-05-04 13:28 23.33300 68.00224 25691 ft 435 kts 317°
2026-05-04 13:28 23.35522 67.97989 25691 ft 435 kts 317°
2026-05-04 13:29 23.37742 67.95756 25691 ft 435 kts 317°
2026-05-04 13:29 23.39960 67.93522 25684 ft 434 kts 317°
2026-05-04 13:29 23.42178 67.91290 25685 ft 434 kts 317°
2026-05-04 13:29 23.44476 67.89180 25683 ft 433 kts 324°
2026-05-04 13:30 23.47081 67.87503 25682 ft 434 kts 334°
2026-05-04 13:30 23.49930 67.86429 25550 ft 433 kts 345°
2026-05-04 13:30 23.52870 67.86080 25330 ft 430 kts 358°
2026-05-04 13:30 23.55845 67.86483 25097 ft 434 kts 10°
2026-05-04 13:31 23.58707 67.87582 24879 ft 439 kts 19°
2026-05-04 13:31 23.61500 67.88962 24655 ft 440 kts 21°
2026-05-04 13:31 23.64259 67.90371 24418 ft 437 kts 21°
2026-05-04 13:31 23.66993 67.91765 24053 ft 429 kts 21°
2026-05-04 13:32 23.69693 67.93134 23556 ft 424 kts 21°
2026-05-04 13:32 23.72363 67.94481 22995 ft 421 kts 21°
2026-05-04 13:32 23.75008 67.95812 22441 ft 416 kts 21°
2026-05-04 13:32 23.77627 67.97123 21903 ft 411 kts 20°
2026-05-04 13:33 23.80308 67.98117 21367 ft 402 kts
2026-05-04 13:33 23.83053 67.98359 20837 ft 393 kts 354°
2026-05-04 13:33 23.85706 67.97794 20327 ft 386 kts 339°
2026-05-04 13:33 23.88095 67.96519 19814 ft 380 kts 327°
2026-05-04 13:34 23.90261 67.94951 19326 ft 377 kts 324°
2026-05-04 13:34 23.92403 67.93320 18821 ft 374 kts 324°
2026-05-04 13:34 23.94526 67.91699 18345 ft 371 kts 324°
2026-05-04 13:34 23.96641 67.90092 17847 ft 369 kts 324°
2026-05-04 13:35 23.98749 67.88495 17321 ft 366 kts 324°
2026-05-04 13:35 24.02890 67.85366 16363 ft 358 kts 324°
2026-05-04 13:35 24.04938 67.83821 15884 ft 356 kts 324°
2026-05-04 13:36 24.06946 67.82305 15414 ft 355 kts 324°
2026-05-04 13:36 24.08984 67.80766 14931 ft 353 kts 324°
2026-05-04 13:36 24.10996 67.79247 14471 ft 350 kts 324°
2026-05-04 13:36 24.13005 67.77731 13996 ft 348 kts 324°
2026-05-04 13:37 24.14992 67.76229 13525 ft 346 kts 324°
2026-05-04 13:37 24.16967 67.74737 13010 ft 343 kts 324°
2026-05-04 13:37 24.18899 67.73276 12533 ft 340 kts 324°
2026-05-04 13:37 24.20203 67.72290 12228 ft 337 kts 324°
2026-05-04 13:38 24.22755 67.70359 11608 ft 334 kts 324°
2026-05-04 13:38 24.24663 67.68915 11154 ft 332 kts 323°
2026-05-04 13:38 24.26579 67.67465 10679 ft 327 kts 323°
2026-05-04 13:38 24.28431 67.66063 10369 ft 318 kts 323°
2026-05-04 13:39 24.30206 67.64720 10313 ft 300 kts 323°
2026-05-04 13:39 24.31882 67.63451 10192 ft 286 kts 323°
2026-05-04 13:39 24.33480 67.62240 10065 ft 273 kts 323°
2026-05-04 13:39 24.34991 67.61094 9941 ft 263 kts 322°
2026-05-04 13:40 24.36472 67.59970 9821 ft 254 kts 322°
2026-05-04 13:40 24.37905 67.58882 9707 ft 246 kts 322°
2026-05-04 13:40 24.39311 67.57813 9543 ft 247 kts 322°
2026-05-04 13:40 24.40724 67.56738 9216 ft 247 kts 322°
2026-05-04 13:41 24.42139 67.55661 8933 ft 246 kts 322°
2026-05-04 13:41 24.43547 67.54591 8654 ft 246 kts 322°
2026-05-04 13:41 24.44957 67.53520 8377 ft 245 kts 322°
2026-05-04 13:42 24.47743 67.51403 7839 ft 244 kts 322°
2026-05-04 13:42 24.49142 67.50339 7562 ft 244 kts 322°
2026-05-04 13:42 24.50532 67.49282 7283 ft 243 kts 323°
2026-05-04 13:42 24.51918 67.48226 6991 ft 241 kts 323°
2026-05-04 13:43 24.53290 67.47181 6719 ft 240 kts 323°
2026-05-04 13:43 24.54666 67.46133 6480 ft 240 kts 323°
2026-05-04 13:43 24.56035 67.45090 6238 ft 239 kts 323°
2026-05-04 13:43 24.57402 67.44049 5990 ft 238 kts 323°
2026-05-04 13:44 24.58776 67.43029 5735 ft 238 kts 324°
2026-05-04 13:44 24.60158 67.42027 5475 ft 238 kts 324°
2026-05-04 13:44 24.61584 67.41102 5238 ft 239 kts 333°
2026-05-04 13:44 24.63208 67.40665 4990 ft 244 kts 354°
2026-05-04 13:45 24.64892 67.41006 4735 ft 253 kts 19°
2026-05-04 13:45 24.66331 67.42163 4465 ft 264 kts 45°
2026-05-04 13:45 24.67077 67.43222 4273 ft 264 kts 47°
2026-05-04 13:45 24.68708 67.45208 3952 ft 259 kts 39°
2026-05-04 13:46 24.70032 67.46531 3821 ft 264 kts 36°
2026-05-04 13:46 24.71508 67.47822 3696 ft 275 kts 32°
2026-05-04 13:46 24.73077 67.49029 3580 ft 275 kts 29°
2026-05-04 13:46 24.74172 67.49785 3498 ft 275 kts 27°
2026-05-04 13:47 24.75838 67.50812 3368 ft 274 kts 23°
2026-05-04 13:47 24.77542 67.51725 3261 ft 271 kts 20°
2026-05-04 13:47 24.79288 67.52527 3141 ft 271 kts 17°
2026-05-04 13:47 24.81075 67.53218 3045 ft 273 kts 14°
2026-05-04 13:48 24.82897 67.53798 2939 ft 272 kts 11°
2026-05-04 13:48 24.84714 67.54257 2799 ft 271 kts
2026-05-04 13:48 24.86578 67.54605 2688 ft 271 kts
2026-05-04 13:48 24.88451 67.54838 2578 ft 269 kts
2026-05-04 13:49 24.90313 67.54954 2446 ft 268 kts 358°
2026-05-04 13:49 24.92180 67.54953 2339 ft 267 kts 355°
2026-05-04 13:49 24.94032 67.54838 2206 ft 265 kts 351°
2026-05-04 13:49 24.95840 67.54506 2100 ft 262 kts 340°
2026-05-04 13:50 24.97411 67.53561 1993 ft 256 kts 316°
2026-05-04 13:50 24.98431 67.52001 1975 ft 246 kts 290°
2026-05-04 13:50 24.98765 67.50227 1987 ft 229 kts 274°
2026-05-04 13:50 24.98691 67.48565 1997 ft 211 kts 262°
2026-05-04 13:51 24.98377 67.47043 1988 ft 194 kts 255°
2026-05-04 13:51 24.98025 67.45683 1983 ft 174 kts 256°
2026-05-04 13:51 24.97711 67.44486 1993 ft 152 kts 256°
2026-05-04 13:51 24.97434 67.43431 1971 ft 135 kts 255°
2026-05-04 13:52 24.96955 67.41575 1971 ft 123 kts 256°
2026-05-04 13:52 24.96724 67.40659 1981 ft 125 kts 258°
2026-05-04 13:52 24.96495 67.39734 1980 ft 125 kts 255°
2026-05-04 13:53 24.96266 67.38806 1973 ft 125 kts 256°
2026-05-04 13:53 24.96038 67.37891 1972 ft 125 kts 256°
2026-05-04 13:53 24.95806 67.36965 1981 ft 126 kts 257°
2026-05-04 13:54 24.95334 67.35100 1979 ft 126 kts 257°
2026-05-04 13:54 24.95099 67.34175 1975 ft 125 kts 257°
2026-05-04 13:54 24.94628 67.32317 1976 ft 126 kts 257°
2026-05-04 13:55 24.94394 67.31390 1980 ft 126 kts 256°
2026-05-04 13:55 24.93926 67.29538 1984 ft 125 kts 257°
2026-05-04 13:55 24.93692 67.28613 1973 ft 125 kts 257°
2026-05-04 13:56 24.93461 67.27694 1909 ft 126 kts 258°
2026-05-04 13:56 24.93227 67.26767 1749 ft 125 kts 257°
2026-05-04 13:56 24.92761 67.24927 1418 ft 124 kts 255°
2026-05-04 13:57 24.92530 67.24013 1272 ft 124 kts 255°
2026-05-04 13:57 24.92297 67.23095 1121 ft 124 kts 258°
2026-05-04 13:58 24.91580 67.20256 623 ft 129 kts 254°
2026-05-04 13:58 24.91097 67.18348 301 ft 131 kts 254°
2026-05-04 13:58 24.90849 67.17374 141 ft 132 kts 256°
2026-05-04 13:59 24.90629 67.16494 102 ft 94 kts 255°
2026-05-04 13:59 24.90497 67.15980 103 ft 50 kts 254°
2026-05-04 13:59 24.90227 67.15829 99 ft 18 kts 151°
2026-05-04 14:00 24.90162 67.15854 100 ft 0 kts 164°